Flag for U.S.A. Weather past 2 weeks in Cleveland, Ohio, U.S.A.

Now
64 °F

Passing clouds.


Feels Like: 64 °F
Forecast: 60 / 72 °F
Wind: 6 mph from East

Location: Cleveland-Hopkins International Airport

Current Time: Aug 28, 2014 at 3:32:09 AM

Latest Report: Aug 28, 2014 at 2:51 AM


Visibility: 10 mi

Pressure: 30.09 "Hg

Humidity: 75%

Dew point: 56 °F

Location of ClevelandLocation

Historic Weather in Cleveland — Graph

°F

Cleveland temperature yesterday

Maximum temperature yesterday: 77 °F (at 10:51 AM)
Minimum temperature yesterday: 68 °F (at 11:51 PM)
Average temperature yesterday: 72 °F

Past Weeks' High & Low Weather Summary

 TemperatureHumidityPressure
High87 °F (Aug 26, 3:51 PM)97% (Aug 13, 1:51 AM)30.14 "Hg (Aug 13, 1:51 AM)
Low51 °F (Aug 15, 4:51 AM)37% (Aug 16, 2:51 PM)29.79 "Hg (Aug 19, 4:51 PM)
Average71 °F73%29.99 "Hg
* Reported Aug 13 1:51 AM — Aug 28 1:51 AM, Cleveland, Weather by CustomWeather, © 2014

Note: Actual official high and low records may vary slightly from our data, if they occured in-between our weather recording intervals... More about our weather records

Advertising

Cleveland weather history for previous 24 hours

 ConditionsComfort  
Time TempWeatherWind HumidityBarometerVisibility
1:51 AM
Aug 28
66 °FPassing clouds.5 mph73%30.10 "Hg10 mi
12:51 AM66 °FPassing clouds.9 mph75%30.10 "Hg10 mi
11:51 PM
Aug 27
68 °FPassing clouds.12 mph73%30.11 "Hg10 mi
10:51 PM69 °FPassing clouds.10 mph73%30.10 "Hg10 mi
9:51 PM69 °FPassing clouds.10 mph73%30.09 "Hg10 mi
8:51 PM69 °FPartly sunny.5 mph79%30.08 "Hg10 mi
7:51 PM70 °FPartly sunny.6 mph76%30.06 "Hg10 mi
6:51 PM71 °FPartly sunny.9 mph71%30.07 "Hg10 mi
5:51 PM73 °FScattered clouds.10 mph66%30.07 "Hg10 mi
4:51 PM74 °FPassing clouds.12 mph67%30.08 "Hg10 mi
3:51 PM75 °FScattered clouds.12 mph69%30.08 "Hg10 mi
2:51 PM75 °FScattered clouds.9 mph71%30.08 "Hg10 mi
1:51 PM74 °FBroken clouds.9 mph76%30.09 "Hg10 mi
12:51 PM73 °FMostly cloudy.12 mph81%30.10 "Hg8 mi
11:51 AM75 °FMore clouds than sun.9 mph82%30.10 "Hg7 mi
10:51 AM77 °FMore clouds than sun.8 mph79%30.10 "Hg7 mi
9:51 AM75 °FMore clouds than sun.3 mph82%30.09 "Hg7 mi
8:51 AM74 °FBroken clouds.No wind85%30.09 "Hg5 mi
7:51 AM73 °FFog.No wind88%30.09 "Hg5 mi
6:51 AM72 °FFog.3 mph93%30.07 "Hg4 mi
5:51 AM72 °FFog.3 mph91%30.07 "Hg6 mi
4:59 AM71 °FPassing clouds.No wind93%30.09 "Hg8 mi
3:51 AM71 °FPartly cloudy.No wind90%30.07 "Hg9 mi
Weather by CustomWeather, © 2014

See weather overviewHow to use our weather pages